Weather Roundup
Issued by NWS Chicago, IL

Home | Current Version | Previous Version | Text Only | Print | Product List | Glossary On
Versions: 1 2 3 4 5 6 7 8 9 10 11 12 13 14 15 16 17 18 19 20 21 22 23 24 25 26 27 28 29 30 31 32 33 34 35 36 37 38 39 40 41 42 43 44 45 46 47 48 49 50
000
NZUS59 KLOT 030710
HRRLOT

CHICAGO AREA WEATHER ROUNDUP
NATIONAL WEATHER SERVICE CHICAGO/ROMEOVILLE IL
200 AM CDT WED SEP 03 2014

NOTE: "FAIR" INDICATES FEW OR NO CLOUDS BELOW 12,000 FEET WITH NO
SIGNIFICANT WEATHER AND/OR OBSTRUCTIONS TO VISIBILITY.

* THESE STATIONS ARE NOT UNDER NWS QUALITY CONTROL. THEY ALSO MAY NOT
  REPORT WEATHER SUCH AS PRECIPITATION OR FOG.

ILZ005-006-012>014-019>023-030800-
NORTHEAST ILLINOIS

CITY           SKY/WX    TMP DP  RH WIND       PRES   REMARKS
OHARE          PTCLDY    67  59  75 W6        29.98S
MIDWAY         PTCLDY    69  63  81 SW6       29.98S
AURORA         CLEAR     60  57  89 CALM      29.99F FOG
LANSING*         N/A    N/A N/A N/A MISG        N/A
JOLIET*        CLEAR     62  59  91 CALM      29.99S
WAUKEGAN       CLEAR     62  59  90 CALM      29.98R
DUPAGE AIRPORT CLEAR     63  61  93 CALM      29.98F
WHEELING       CLEAR     67  61  81 CALM      29.99S
KANKAKEE*      PTCLDY    61  61  98 CALM      30.00S FOG
MORRIS*        CLEAR     64  63  99 CALM      29.99S
LEWIS AIRPORT* CLEAR     61  60  95 S3        29.99S
NORTHERLY IS     N/A     72  60  66 W3          N/A
$$

WIZ051-052-058>065-066-070>072-030800-
SOUTHEAST WISCONSIN

CITY           SKY/WX    TMP DP  RH WIND       PRES   REMARKS
MILWAUKEE      CLEAR     66  58  75 W5        29.97S
KENOSHA*       CLEAR     60  58  92 CALM      29.98S
RACINE*        CLEAR     65  58  78 W5        29.99R
BURLINGTON     CLEAR     54  54 100 CALM      29.98F FOG
WAUKESHA       CLEAR     59  55  88 CALM      29.99S
WEST BEND      CLEAR     55  54  94 CALM      29.97S
$$

INZ001>003-010>013-019-020-030800-
NORTHWEST INDIANA

CITY           SKY/WX    TMP DP  RH WIND       PRES   REMARKS
GARY*          PTCLDY    67  62  82 CALM      29.98F
MICHIGAN CITY* NOT AVBL
RENSSELAER*    NOT AVBL
VALPARAISO     CLEAR     64  61  90 SW3       29.99F
$$

LMZ740>746-030800-
SOUTHERN LAKE MICHIGAN

STATION/POSITION TIME  SKY/WX   TEMP WIND        PRES    VSBY
                                AIR  DIR/SP/G
                 (UTC)          (F)  (DEG/KT/KT) (MB)    (MI)
HARRISON CRIB    0700            73  270/  6/  6   N/A
BURNHAM HARBOR   0700            72  270/  3/  5   N/A
CALUMET HARBOR   0700            69  200/  5/  5 1013.9F
BURNS HARBOR     NOT AVBL
MICHIGAN CITY    0700            70  190/ 10/ 11   N/A
$$

ABBREVIATIONS USED IN REMARKS
   TC - TEMPERATURE IN CELSIUS
  WCI - WIND CHILL INDEX
   HX - HEAT INDEX
  VSB - VISIBILITY
$$


USA.gov is the U.S. government's official web portal to all federal, state and local government web resources and services.